Regional Weather Roundup
Issued by NWS

Home | Current Version | Previous Version | Graphics & Text | Print | Product List | Glossary On
Versions: 1 2 3 4 5 6 7 8 9 10 11 12 13 14 15 16 17 18 19 20 21 22 23 24 25 26 27 28 29 30 31 32 33 34 35 36 37 38 39 40 41 42 43 44 45 46 47 48 49 50
435
ASUS43 KFSD 061102
RWRSD

WEATHER ROUNDUP FOR SOUTH DAKOTA
NATIONAL WEATHER SERVICE SIOUX FALLS SD
600 AM CDT FRI MAY 06 2016

NOTE: "FAIR" INDICATES FEW OR NO CLOUDS BELOW 12,000 FEET WITH NO
SIGNIFICANT WEATHER AND/OR OBSTRUCTIONS TO VISIBILITY.


SDZ001>005-009-010-012>017-061200-
NORTHWEST AND NORTH CENTRAL SOUTH DAKOTA

CITY           SKY/WX    TMP DP  RH WIND       PRES   REMARKS
BUFFALO          N/A     61  41  47 NW7       29.80S
FAITH            N/A     59  39  47 S10       29.82S
MOBRIDGE       CLEAR     49  46  90 CALM      29.77S
$$

SDZ012>016-024>037-041>051-057-063-072>074-061200-
SOUTHWEST AND SOUTH CENTRAL SOUTH DAKOTA

CITY           SKY/WX    TMP DP  RH WIND       PRES   REMARKS
RAPID CTY ARPT PTCLDY    49  40  71 N5        29.85S
PIERRE         PTCLDY    57  48  72 S5        29.80S
CUSTER         CLOUDY    48  33  56 NW6       30.00S
ELLSWORTH AFB  PTCLDY    55  39  56 SW5       29.85R
PHILIP         CLEAR     49  46  90 CALM      29.82S
PINE RIDGE     PTCLDY    54  44  69 CALM      29.90F
WINNER         LGT RAIN  65  48  54 S21G30    29.84F
$$

SDZ004>011-016>023-039-040-061200-
NORTHEAST SOUTH DAKOTA

CITY           SKY/WX    TMP DP  RH WIND       PRES   REMARKS
ABERDEEN       CLEAR     54  46  74 S10       29.77F
WATERTOWN      CLEAR     58  45  62 S10       29.83F
BROOKINGS      CLOUDY    53  44  71 S9        29.87F
SISSETON         N/A     67  46  47 SW21      29.75F
$$

SDZ017-020-022-023-036>040-048>070-061200-
SOUTHEAST SOUTH DAKOTA

CITY           SKY/WX    TMP DP  RH WIND       PRES   REMARKS
SIOUX FALLS    PTCLDY    58  44  60 S9        29.90F
HURON          CLEAR     61  50  67 S15       29.81S
MITCHELL       PTCLDY    65  49  56 S9        29.86R
YANKTON        CLEAR     64  43  45 SW15      29.90S
$$

ABBREVIATIONS USED IN REMARKS
   TC - TEMPERATURE IN CELSIUS
  WCI - WIND CHILL INDEX
   HX - HEAT INDEX
  VSB - VISIBILITY





USA.gov is the U.S. government's official web portal to all federal, state and local government web resources and services.